This is the latest recevied weather packets stored in our database for station/object K0SNA. If no packets are shown the sender has not sent any weather packets the latest 10 day(s).
| Time | Temp. | Humidity | Pressure | Rain* | Wind** | Luminosity | Snow |
|---|---|---|---|---|---|---|---|
| 1777819681 | 17.22° C | 44% | 1006.6 hPa | 0 mm | - | 435 W/m² | - |
| 1777819380 | 17.22° C | 44% | 1006.7 hPa | 0 mm | - | 423 W/m² | - |
| 1777819076 | 16.67° C | 45% | 1006.6 hPa | 0 mm | - | 415 W/m² | - |
| 1777818773 | 16.67° C | 45% | 1006.8 hPa | 0 mm | - | 399 W/m² | - |
| 1777818469 | 16.11° C | 45% | 1006.9 hPa | 0 mm | - | 386 W/m² | - |
| 1777818166 | 16.11° C | 46% | 1006.9 hPa | 0 mm | - | 369 W/m² | - |
| 1777817862 | 15.56° C | 47% | 1006.6 hPa | 0 mm | - | 355 W/m² | - |
| 1777817561 | 15.56° C | 47% | 1006.8 hPa | 0 mm | - | 343 W/m² | - |
| 1777817257 | 15.56° C | 48% | 1006.6 hPa | 0 mm | - | 329 W/m² | - |
| 1777816954 | 15° C | 49% | 1006.6 hPa | 0 mm | - | 314 W/m² | - |
| 1777816650 | 15° C | 50% | 1006.5 hPa | 0 mm | - | 136 W/m² | - |
| 1777816347 | 14.44° C | 50% | 1006.4 hPa | 0 mm | - | 288 W/m² | - |
| 1777816045 | 14.44° C | 50% | 1006.5 hPa | 0 mm | - | 276 W/m² | - |
| 1777815742 | 14.44° C | 51% | 1006.5 hPa | 0 mm | - | 265 W/m² | - |
| 1777815440 | 14.44° C | 51% | 1006.3 hPa | 0 mm | - | 249 W/m² | - |
| 1777815137 | 14.44° C | 50% | 1006.4 hPa | 0 mm | - | 235 W/m² | - |
| 1777814833 | 13.89° C | 50% | 1006.4 hPa | 0 mm | - | 222 W/m² | - |
| 1777814529 | 13.89° C | 50% | 1006.3 hPa | 0 mm | - | 210 W/m² | - |
| 1777814227 | 13.89° C | 50% | 1005.9 hPa | 0 mm | - | 196 W/m² | - |
| 1777813924 | 13.89° C | 50% | 1006.2 hPa | 0 mm | - | 166 W/m² | - |
| 1777813621 | 13.33° C | 50% | 1006.1 hPa | 0 mm | - | 148 W/m² | - |
| 1777813319 | 13.33° C | 51% | 1006.1 hPa | 0 mm | - | 41 W/m² | - |
| 1777813016 | 13.33° C | 50% | 1005.9 hPa | 0 mm | - | 146 W/m² | - |
| 1777812714 | 12.78° C | 51% | 1005.9 hPa | 0 mm | - | 45 W/m² | - |
| 1777812409 | 12.78° C | 51% | 1005.8 hPa | 0 mm | - | 119 W/m² | - |
* Rain latest hour (hover to see other rain measurements)
** Current wind speed in m/s (hover to see current wind gust speed)